Time,TemperatureF,DewpointF,PressureIn,WindDirection,WindDirectionDegrees,WindSpeedMPH,WindSpeedGustMPH,Humidity,HourlyPrecipIn,Conditions,Clouds,dailyrainin,SoftwareType,DateUTC
2013-01-31 00:03:00,37.0,32.0,-100.00,NNW,335,14.0,27.0,82,0.55,,,-99.99,,2013-01-31 05:03:00,
2013-01-31 00:11:00,37.0,32.0,-100.00,NNW,335,16.0,27.0,83,0.00,,,-99.99,,2013-01-31 05:11:00,
2013-01-31 00:22:00,36.0,32.0,-100.00,NNW,345,14.0,25.0,84,1.69,,,-99.99,,2013-01-31 05:22:00,
2013-01-31 00:32:00,36.0,32.0,-100.00,NNW,345,14.0,25.0,84,1.69,,,-99.99,,2013-01-31 05:32:00,
2013-01-31 00:42:00,33.0,30.0,-100.00,North,350,16.0,32.0,88,2.83,,,-99.99,,2013-01-31 05:42:00,
2013-01-31 00:52:00,33.0,30.0,-100.00,North,350,16.0,32.0,88,2.83,,,-99.99,,2013-01-31 05:52:00,
2013-01-31 01:01:00,33.0,30.0,-100.00,North,350,16.0,32.0,88,2.83,,,-99.99,,2013-01-31 06:01:00,
2013-01-31 01:10:00,33.0,30.0,-100.00,North,350,16.0,32.0,88,2.83,,,-99.99,,2013-01-31 06:10:00,
2013-01-31 09:03:00,24.0,15.0,-100.00,NNW,340,11.0,25.0,70,0.55,,,-99.99,,2013-01-31 14:03:00,
2013-01-31 09:11:00,23.0,14.0,-100.00,North,0,21.0,32.0,67,0.00,,,-99.99,,2013-01-31 14:11:00,
2013-01-31 09:22:00,24.0,13.0,-100.00,North,0,17.0,27.0,61,0.00,,,-99.99,,2013-01-31 14:22:00,
2013-01-31 09:32:00,24.0,13.0,-100.00,North,355,19.0,31.0,62,0.00,,,-99.99,,2013-01-31 14:32:00,
2013-01-31 09:42:00,23.0,15.0,-100.00,North,0,15.0,25.0,69,1.10,,,-99.99,,2013-01-31 14:42:00,
2013-01-31 09:52:00,23.0,15.0,-100.00,North,355,12.0,22.0,68,0.00,,,-99.99,,2013-01-31 14:52:00,
2013-01-31 10:03:00,24.0,14.0,-100.00,North,0,16.0,24.0,67,0.55,,,-99.99,,2013-01-31 15:03:00,
2013-01-31 10:12:00,23.0,16.0,-100.00,NNW,345,13.0,24.0,73,0.55,,,-99.99,,2013-01-31 15:12:00,
2013-01-31 10:22:00,23.0,15.0,-100.00,NNW,335,13.0,26.0,71,0.00,,,-99.99,,2013-01-31 15:22:00,
2013-01-31 10:32:00,23.0,16.0,-100.00,NNW,340,14.0,28.0,72,1.10,,,-99.99,,2013-01-31 15:32:00,
2013-01-31 10:42:00,23.0,17.0,-100.00,North,355,9.0,22.0,76,0.00,,,-99.99,,2013-01-31 15:42:00,
2013-01-31 10:51:00,24.0,16.0,-100.00,NNW,345,12.0,20.0,71,0.00,,,-99.99,,2013-01-31 15:51:00,
2013-01-31 11:03:00,24.0,16.0,-100.00,North,0,8.0,16.0,70,0.00,,,-99.99,,2013-01-31 16:03:00,
2013-01-31 11:12:00,24.0,17.0,-100.00,NNW,335,14.0,24.0,75,2.24,,,-99.99,,2013-01-31 16:12:00,
2013-01-31 11:22:00,24.0,17.0,-100.00,NNW,330,7.0,23.0,75,0.00,,,-99.99,,2013-01-31 16:22:00,
2013-01-31 11:33:00,24.0,18.0,-100.00,North,355,10.0,17.0,79,4.53,,,-99.99,,2013-01-31 16:33:00,
2013-01-31 11:42:00,22.0,18.0,-100.00,North,355,17.0,32.0,83,6.22,,,-99.99,,2013-01-31 16:42:00,
2013-01-31 11:52:00,22.0,15.0,-100.00,NNW,340,19.0,31.0,74,0.00,,,-99.99,,2013-01-31 16:52:00,
2013-01-31 12:03:00,22.0,11.0,-100.00,North,0,17.0,34.0,61,0.00,,,-99.99,,2013-01-31 17:03:00,
2013-01-31 12:12:00,22.0,10.0,-100.00,North,0,21.0,32.0,58,0.00,,,-99.99,,2013-01-31 17:12:00,
2013-01-31 12:23:00,22.0,9.0,-100.00,North,0,17.0,32.0,55,0.00,,,-99.99,,2013-01-31 17:23:00,
2013-01-31 12:32:00,22.0,9.0,-100.00,NNW,345,17.0,30.0,55,0.00,,,-99.99,,2013-01-31 17:32:00,
2013-01-31 12:43:00,22.0,10.0,-100.00,North,355,13.0,24.0,58,0.00,,,-99.99,,2013-01-31 17:43:00,
2013-01-31 12:53:00,22.0,10.0,-100.00,North,0,19.0,29.0,60,0.00,,,-99.99,,2013-01-31 17:53:00,
2013-01-31 13:03:00,22.0,12.0,-100.00,NNW,345,9.0,22.0,66,1.10,,,-99.99,,2013-01-31 18:03:00,
2013-01-31 13:12:00,22.0,12.0,-100.00,NNW,345,9.0,22.0,66,1.10,,,-99.99,,2013-01-31 18:12:00,
2013-01-31 13:22:00,21.0,15.0,-100.00,North,355,12.0,24.0,77,5.08,,,-99.99,,2013-01-31 18:22:00,
2013-01-31 13:32:00,22.0,14.0,-100.00,North,355,19.0,27.0,72,0.00,,,-99.99,,2013-01-31 18:32:00,
2013-01-31 13:43:00,22.0,14.0,-100.00,North,0,16.0,27.0,70,0.55,,,-99.99,,2013-01-31 18:43:00,
2013-01-31 13:52:00,22.0,13.0,-100.00,North,350,12.0,21.0,68,0.00,,,-99.99,,2013-01-31 18:52:00,
2013-01-31 14:03:00,22.0,13.0,-100.00,NNW,345,14.0,27.0,68,0.00,,,-99.99,,2013-01-31 19:03:00,
2013-01-31 14:12:00,22.0,14.0,-100.00,North,355,15.0,23.0,71,1.10,,,-99.99,,2013-01-31 19:12:00,
2013-01-31 14:22:00,22.0,14.0,-100.00,NNW,340,17.0,25.0,73,0.55,,,-99.99,,2013-01-31 19:22:00,
2013-01-31 14:33:00,22.0,15.0,-100.00,North,350,12.0,22.0,75,1.10,,,-99.99,,2013-01-31 19:33:00,
2013-01-31 14:42:00,22.0,15.0,-100.00,NNW,345,16.0,25.0,73,0.00,,,-99.99,,2013-01-31 19:42:00,
2013-01-31 14:52:00,22.0,15.0,-100.00,North,355,12.0,21.0,75,0.00,,,-99.99,,2013-01-31 19:52:00,
2013-01-31 15:02:00,22.0,15.0,-100.00,North,0,12.0,24.0,71,0.00,,,-99.99,,2013-01-31 20:02:00,
2013-01-31 15:11:00,23.0,15.0,-100.00,NNW,345,7.0,24.0,71,0.00,,,-99.99,,2013-01-31 20:11:00,
2013-01-31 15:22:00,22.0,15.0,-100.00,NNW,340,10.0,19.0,70,0.00,,,-99.99,,2013-01-31 20:22:00,
2013-01-31 15:32:00,22.0,16.0,-100.00,North,0,11.0,21.0,74,0.55,,,-99.99,,2013-01-31 20:32:00,
2013-01-31 15:42:00,23.0,16.0,-100.00,NNW,335,11.0,19.0,75,0.00,,,-99.99,,2013-01-31 20:42:00,
2013-01-31 15:52:00,23.0,16.0,-100.00,North,0,11.0,18.0,76,1.10,,,-99.99,,2013-01-31 20:52:00,
2013-01-31 16:02:00,23.0,17.0,-100.00,NNW,340,9.0,16.0,79,0.55,,,-99.99,,2013-01-31 21:02:00,
2013-01-31 16:12:00,23.0,18.0,-100.00,NW,325,7.0,19.0,78,0.00,,,-99.99,,2013-01-31 21:12:00,
2013-01-31 16:22:00,24.0,17.0,-100.00,NNW,335,7.0,14.0,74,0.00,,,-99.99,,2013-01-31 21:22:00,
2013-01-31 16:32:00,24.0,16.0,-100.00,North,355,12.0,21.0,70,0.00,,,-99.99,,2013-01-31 21:32:00,
2013-01-31 16:42:00,24.0,17.0,-100.00,NNW,345,11.0,18.0,73,0.00,,,-99.99,,2013-01-31 21:42:00,
2013-01-31 16:52:00,24.0,17.0,-100.00,North,0,10.0,16.0,75,0.55,,,-99.99,,2013-01-31 21:52:00,
2013-01-31 17:03:00,24.0,18.0,-100.00,North,0,7.0,15.0,76,0.55,,,-99.99,,2013-01-31 22:03:00,
2013-01-31 17:11:00,24.0,18.0,-100.00,North,5,11.0,16.0,78,0.55,,,-99.99,,2013-01-31 22:11:00,
2013-01-31 17:22:00,23.0,19.0,-100.00,NNW,335,7.0,20.0,83,0.55,,,-99.99,,2013-01-31 22:22:00,
2013-01-31 17:33:00,23.0,18.0,-100.00,NW,320,6.0,14.0,78,0.00,,,-99.99,,2013-01-31 22:33:00,
2013-01-31 17:42:00,24.0,18.0,-100.00,North,350,11.0,16.0,79,1.10,,,-99.99,,2013-01-31 22:42:00,
2013-01-31 17:51:00,23.0,18.0,-100.00,NNW,345,7.0,22.0,80,0.00,,,-99.99,,2013-01-31 22:51:00,
2013-01-31 18:03:00,23.0,17.0,-100.00,NNW,345,7.0,19.0,77,0.00,,,-99.99,,2013-01-31 23:03:00,
2013-01-31 18:12:00,24.0,17.0,-100.00,North,0,7.0,16.0,74,0.00,,,-99.99,,2013-01-31 23:12:00,
2013-01-31 18:22:00,23.0,18.0,-100.00,North,350,11.0,21.0,81,5.67,,,-99.99,,2013-01-31 23:22:00,
2013-01-31 18:32:00,23.0,18.0,-100.00,North,5,9.0,19.0,81,0.00,,,-99.99,,2013-01-31 23:32:00,
2013-01-31 18:42:00,23.0,18.0,-100.00,North,355,11.0,20.0,78,0.00,,,-99.99,,2013-01-31 23:42:00,
2013-01-31 18:52:00,23.0,18.0,-100.00,NNW,345,9.0,21.0,80,2.83,,,-99.99,,2013-01-31 23:52:00,
2013-01-31 19:02:00,23.0,17.0,-100.00,North,0,9.0,17.0,77,0.00,,,-99.99,,2013-02-01 00:02:00,
2013-01-31 19:11:00,23.0,15.0,-100.00,North,350,14.0,21.0,72,0.00,,,-99.99,,2013-02-01 00:11:00,
2013-01-31 19:22:00,23.0,15.0,-100.00,NNW,345,7.0,21.0,69,0.00,,,-99.99,,2013-02-01 00:22:00,
2013-01-31 19:32:00,23.0,14.0,-100.00,North,355,13.0,19.0,66,0.00,,,-99.99,,2013-02-01 00:32:00,
2013-01-31 19:42:00,23.0,14.0,-100.00,North,350,8.0,16.0,66,0.00,,,-99.99,,2013-02-01 00:42:00,
2013-01-31 19:51:00,23.0,12.0,-100.00,North,0,11.0,23.0,63,0.00,,,-99.99,,2013-02-01 00:51:00,
2013-01-31 20:01:00,23.0,12.0,-100.00,North,0,12.0,16.0,62,0.00,,,-99.99,,2013-02-01 01:01:00,
2013-01-31 20:11:00,23.0,11.0,-100.00,North,0,10.0,19.0,60,0.00,,,-99.99,,2013-02-01 01:11:00,
2013-01-31 20:21:00,23.0,12.0,-100.00,NNW,345,11.0,19.0,60,0.00,,,-99.99,,2013-02-01 01:21:00,
2013-01-31 20:32:00,23.0,12.0,-100.00,North,350,11.0,17.0,60,0.00,,,-99.99,,2013-02-01 01:32:00,
2013-01-31 20:42:00,23.0,12.0,-100.00,North,0,14.0,24.0,60,0.00,,,-99.99,,2013-02-01 01:42:00,
2013-01-31 20:52:00,23.0,11.0,-100.00,North,0,14.0,23.0,59,0.00,,,-99.99,,2013-02-01 01:52:00,
2013-01-31 21:02:00,23.0,11.0,-100.00,North,0,14.0,27.0,59,0.00,,,-99.99,,2013-02-01 02:02:00,
2013-01-31 21:11:00,23.0,11.0,-100.00,North,0,17.0,25.0,58,0.00,,,-99.99,,2013-02-01 02:11:00,
2013-01-31 21:21:00,23.0,12.0,-100.00,North,0,11.0,19.0,64,0.00,,,-99.99,,2013-02-01 02:21:00,
2013-01-31 21:32:00,22.0,14.0,-100.00,NNE,15,11.0,17.0,69,0.00,,,-99.99,,2013-02-01 02:32:00,
2013-01-31 21:42:00,22.0,15.0,-100.00,NNE,15,7.0,19.0,73,0.00,,,-99.99,,2013-02-01 02:42:00,
2013-01-31 21:52:00,21.0,14.0,-100.00,North,5,9.0,17.0,74,0.55,,,-99.99,,2013-02-01 02:52:00,
2013-01-31 22:02:00,21.0,14.0,-100.00,NNE,25,6.0,16.0,74,0.00,,,-99.99,,2013-02-01 03:02:00,
2013-01-31 22:12:00,20.0,13.0,-100.00,NNE,25,11.0,18.0,71,0.00,,,-99.99,,2013-02-01 03:12:00,
2013-01-31 22:21:00,20.0,12.0,-100.00,North,10,10.0,19.0,68,0.00,,,-99.99,,2013-02-01 03:21:00,
2013-01-31 22:33:00,20.0,11.0,-100.00,North,0,11.0,19.0,66,0.00,,,-99.99,,2013-02-01 03:33:00,
2013-01-31 22:42:00,20.0,10.0,-100.00,North,0,9.0,16.0,65,0.00,,,-99.99,,2013-02-01 03:42:00,
2013-01-31 22:51:00,20.0,9.0,-100.00,North,0,14.0,21.0,61,0.00,,,-99.99,,2013-02-01 03:51:00,
2013-01-31 23:02:00,20.0,9.0,-100.00,North,0,14.0,22.0,63,0.55,,,-99.99,,2013-02-01 04:02:00,
2013-01-31 23:11:00,20.0,10.0,-100.00,NNE,15,10.0,16.0,65,0.00,,,-99.99,,2013-02-01 04:11:00,
2013-01-31 23:21:00,20.0,9.0,-100.00,NNE,20,9.0,17.0,63,0.00,,,-99.99,,2013-02-01 04:21:00,
2013-01-31 23:32:00,19.0,8.0,-100.00,North,5,13.0,22.0,61,0.00,,,-99.99,,2013-02-01 04:32:00,
2013-01-31 23:41:00,19.0,10.0,-100.00,North,0,9.0,16.0,67,0.55,,,-99.99,,2013-02-01 04:41:00,
2013-01-31 23:51:00,18.0,9.0,-100.00,NNE,30,9.0,19.0,66,0.00,,,-99.99,,2013-02-01 04:51:00,